Flag for United Kingdom Weather past 2 weeks in Canvey Island, England, United Kingdom

Now
55 °F

Passing clouds.


Feels Like: 52 °F
Forecast: 43 / 56 °F
Wind: 13 mph from Southwest

Location: Southend Airport-On-Sea

Current Time: Oct 20, 2014 at 11:54:21 PM

Latest Report: Oct 20, 2014 at 11:20 PM


Visibility: N/A

Pressure: 29.86 "Hg

Humidity: 82%

Dew point: 50 °F

Location of Canvey IslandLocation

Historic Weather in Canvey Island — Graph

°F

Canvey Island temperature yesterday

Maximum temperature yesterday: 68 °F (at 1:50 PM)
Minimum temperature yesterday: 57 °F (at 8:50 PM)
Average temperature yesterday: 63 °F

Past Weeks' High & Low Weather Summary

 TemperatureHumidityPressure
High70 °F (Oct 18, 11:50 AM)94% (Oct 6, 7:50 PM)30.04 "Hg (Oct 6, 7:50 PM)
Low41 °F (Oct 12, 4:50 AM)39% (Oct 14, 11:50 AM)29.33 "Hg (Oct 7, 7:50 AM)
Average58 °F81%29.70 "Hg
* Reported Oct 5 10:20 PM — Oct 20 10:20 PM, Canvey Island, Weather by CustomWeather, © 2014

Note: Actual official high and low records may vary slightly from our data, if they occured in-between our weather recording intervals... More about our weather records

Advertising

Canvey Island weather history for previous 24 hours

 ConditionsComfort  
Time TempWeatherWind HumidityBarometerVisibility
10:20 PM
Oct 20
57 °FPassing clouds.13 mph77%29.89 "HgN/A
9:50 PM57 °FPassing clouds.13 mph77%29.89 "HgN/A
9:20 PM55 °FPassing clouds.14 mph82%29.92 "HgN/A
8:50 PM55 °FPassing clouds.12 mph82%29.92 "HgN/A
8:20 PM55 °FClear.13 mph82%29.92 "Hg10 mi
7:50 PM55 °FPassing clouds.10 mph82%29.92 "HgN/A
7:20 PM55 °FPassing clouds.7 mph77%29.95 "HgN/A
6:50 PM57 °FPassing clouds.9 mph72%29.95 "HgN/A
6:20 PM61 °FScattered clouds.14 mph59%29.95 "HgN/A
5:50 PM59 °FScattered showers. Passing clouds.12 mph63%29.95 "HgN/A
5:20 PM61 °FPassing clouds.12 mph63%29.95 "HgN/A
4:50 PM61 °FPassing clouds.10 mph59%29.95 "HgN/A
4:20 PM63 °FPassing clouds.13 mph59%29.95 "HgN/A
3:50 PM63 °FPassing clouds.14 mph59%29.95 "HgN/A
3:20 PM63 °FPassing clouds.14 mph59%29.95 "HgN/A
2:50 PM63 °FPassing clouds.13 mph64%29.98 "HgN/A
2:20 PM63 °FPassing clouds.15 mph64%29.98 "HgN/A
1:50 PM63 °FScattered clouds.15 mph59%29.98 "HgN/A
1:20 PM61 °FPassing clouds.12 mph63%30.01 "HgN/A
12:20 PM61 °FPassing clouds.12 mph68%30.01 "HgN/A
11:20 AM61 °FPassing clouds.13 mph72%30.04 "HgN/A
10:50 AM61 °FPassing clouds.13 mph72%30.04 "HgN/A
10:20 AM57 °FScattered clouds.16 mph77%30.04 "HgN/A
9:50 AM57 °FPassing clouds.15 mph77%30.04 "HgN/A
9:20 AM57 °FPassing clouds.14 mph77%30.01 "HgN/A
8:50 AM57 °FPassing clouds.13 mph77%30.01 "HgN/A
8:20 AM55 °FPassing clouds.13 mph77%30.01 "HgN/A
7:50 AM55 °FPassing clouds.13 mph82%30.01 "HgN/A
7:20 AM55 °FPassing clouds.12 mph82%30.01 "HgN/A
6:50 AM55 °FPassing clouds.13 mph82%30.01 "HgN/A
6:20 AM55 °FPassing clouds.12 mph82%30.01 "HgN/A
5:50 AM55 °FPassing clouds.12 mph82%30.01 "HgN/A
3:50 AM57 °FPassing clouds.15 mph77%30.01 "HgN/A
1:50 AM57 °FPassing clouds.17 mph77%30.01 "HgN/A
12:50 AM57 °FPassing clouds.17 mph77%30.01 "HgN/A
11:50 PM
Oct 19
57 °FPassing clouds.17 mph82%29.98 "HgN/A
11:20 PM57 °FPassing clouds.15 mph82%29.98 "HgN/A
Weather by CustomWeather, © 2014

See weather overviewHow to use our weather pages